Location: Unspecified
(51.5147°N, 7.4673°E)
Time: 16:06:02
(UTC+01:00)

Injun/Solrad 3 - Visible Passes

Search period start: 10 February 2026 00:00
Search period end: 20 February 2026 00:00
Orbit: 873 x 983 km, 66.8° (Epoch: 10 February)

Date Brightness Start Highest point End Pass type
(mag) Time Alt. Az. Time Alt. Az. Time Alt. Az.
10 Feb 9.1 19:34:43 10° NNW 19:39:44 26° NNE 19:41:15 24° NE visible
10 Feb 9.0 21:21:09 10° NW 21:24:54 39° NNW 21:24:54 39° NNW visible
10 Feb 10.6 23:08:10 10° NW 23:08:32 12° NW 23:08:32 12° NW visible
11 Feb 8.8 19:45:47 10° NNW 19:51:08 31° NNE 19:52:15 29° NE visible
11 Feb 9.0 21:32:12 10° NW 21:35:53 39° NW 21:35:53 39° NW visible
12 Feb 9.4 18:09:57 10° NW 18:14:17 20° N 18:18:42 10° ENE visible
12 Feb 8.5 19:56:50 10° NNW 20:02:29 39° NE 20:03:17 37° NE visible
12 Feb 9.2 21:43:18 10° NW 21:46:55 37° NW 21:46:55 37° NW visible
13 Feb 9.3 18:21:12 10° NNW 18:25:49 22° NNE 18:30:30 10° ENE visible
13 Feb 8.1 20:07:51 10° NNW 20:13:45 49° NE 20:14:22 47° ENE visible
13 Feb 9.4 21:54:27 10° NW 21:58:01 33° WNW 21:58:01 33° WNW visible
14 Feb 9.1 18:32:23 10° NNW 18:37:19 25° NNE 18:41:51 12° ENE visible
14 Feb 7.8 20:18:51 10° NW 20:24:56 64° NE 20:25:31 61° ENE visible
14 Feb 9.6 22:05:44 10° NW 22:09:10 27° W 22:09:10 27° W visible
15 Feb 8.9 18:43:28 10° NNW 18:48:44 29° NNE 18:53:03 14° E visible
15 Feb 7.8 20:29:53 10° NW 20:36:02 85° NE 20:36:43 72° SE visible
15 Feb 9.9 22:17:12 10° WNW 22:20:23 21° W 22:20:23 21° W visible
16 Feb 8.6 18:54:31 10° NNW 19:00:06 36° NE 19:04:20 17° E visible
16 Feb 8.0 20:40:57 10° NW 20:47:04 72° WSW 20:48:01 61° S visible
16 Feb 10.2 22:29:03 10° WNW 22:31:40 15° W 22:31:40 15° W visible
17 Feb 8.3 19:05:32 10° NNW 19:11:23 45° NE 19:15:44 18° ESE visible
17 Feb 8.5 20:52:06 10° NW 20:58:02 52° WSW 20:59:24 44° SSW visible
17 Feb 10.6 22:42:51 10° W 22:43:05 10° W 22:43:05 10° W visible
18 Feb 8.0 19:16:33 10° NW 19:22:35 59° NE 19:27:14 18° ESE visible
18 Feb 9.1 21:03:20 10° NW 21:08:55 37° WSW 21:10:55 29° SSW visible
19 Feb 7.9 19:27:34 10° NW 19:33:44 78° NE 19:38:54 16° SE visible
19 Feb 9.7 21:14:44 10° NW 21:19:43 26° WSW 21:22:36 19° SSW visible
